Dewpoint
4 3 4 5 5 3 4 4 9 8 8 6 7 6 2 -4 0 2 3 3 3 4 4 3 3 3 4 5 6 10 9 8 8 8 7 7 8 7 8 9 9 9 8 8
4 3 2 4 4 2 5 6 5 7 8 7 6 5 4 -0 2 3 3 3 3 3 2 3 3 3 4 4 4 6 9 10 9 9 8 8 8 8 8 7 6 9 8 8
6 2 5 4 1 5 6 6 5 8 5 6 6 4 1 2 1 2 2 3 3 2 2 0 0 0 1 2 3 4 6 7 10 9 9 9 8 8 9 9 8 8 8 9
5 3 7 3 1 2 3 4 2 -2 0 -3 -0 2 1 1 2 2 2 2 2 2 1 0 -1 -1 -1 0 2 3 3 5 6 9 10 9 9 9 9 9 10 10 9 9
5 5 3 2 1 -4 0 -0 -2 -3 -3 -2 1 1 1 1 2 2 1 1 1 1 1 1 -1 -2 -1 1 2 3 3 4 5 5 5 8 10 9 9 9 9 10 10 10
4 5 6 3 -1 -4 -4 5 2 1 1 1 1 4 2 2 2 1 1 1 0 0 0 0 -0 0 -1 0 1 1 2 4 5 5 5 5 6 9 10 10 9 10 10 10
2 4 4 0 -3 -4 1 6 2 2 2 1 2 2 2 2 1 1 1 -0 -1 -0 -0 -0 0 0 -0 -0 0 1 2 2 3 5 5 6 6 5 9 10 10 10 10 10
2 3 3 -4 0 1 4 2 2 1 1 1 1 1 1 1 0 0 -1 -1 -1 -0 -0 0 0 -0 -0 -1 -1 -1 0 1 2 4 5 6 6 7 9 10 10 10 10 10
1 1 1 3 3 3 2 1 1 1 0 0 0 0 -0 -0 -1 -1 -1 -1 -0 -0 -0 -1 -1 -1 -1 -1 -1 -1 -1 -1 -0 2 4 5 5 6 7 8 9 9 9 9
2 3 3 4 3 1 0 0 0 0 0 0 -0 -0 -1 -1 -2 -1 -1 -1 -2 -1 -1 -1 -2 -2 -2 -2 -3 -3 -3 -3 -3 -2 -0 2 3 3 3 4 5 4 3 5
3 4 3 3 2 1 -0 -1 -1 -1 -1 -1 -1 -1 -1 -2 -1 -2 -2 -2 -3 -3 -3 -4 -3 -3 -3 -3 -4 -4 -4 -4 -4 -4 -4 -3 -2 -2 -2 -2 -2 -2 -3 -5
4 3 3 2 2 1 -0 -1 -2 -2 -2 -3 -2 -3 -3 -3 -4 -5 -5 -5 -5 -6 -6 -6 -6 -6 -6 -5 -5 -6 -6 -6 -6 -7 -7 -7 -6 -6 -7 -6 -5 -5 -5 -6
-0 2 1 -0 -1 -1 -2 -3 -3 -3 -4 -4 -4 -5 -5 -7 -7 -7 -7 -7 -7 -7 -7 -7 -7 -7 -7 -7 -6 -7 -7 -7 -8 -8 -9 -9 -9 -9 -7 -7 -7 -8 -8 -8
-2 0 -2 -2 -3 -3 -3 -4 -4 -5 -6 -6 -6 -6 -7 -8 -8 -9 -9 -9 -8 -8 -8 -8 -8 -8 -7 -7 -7 -7 -7 -7 -8 -8 -8 -9 -8 -9 -9 -9 -9 -9 -9 -8
-3 -3 -3 -4 -5 -5 -4 -5 -6 -7 -8 -8 -9 -9 -10 -10 -10 -10 -10 -9 -9 -8 -8 -8 -8 -8 -8 -7 -7 -8 -8 -8 -8 -8 -8 -8 -9 -9 -10 -10 -11 -11 -11 -10
-4 -4 -4 -6 -6 -6 -7 -7 -8 -8 -9 -10 -10 -11 -11 -11 -11 -10 -10 -10 -9 -9 -9 -9 -9 -9 -8 -8 -8 -8 -8 -9 -9 -10 -10 -10 -10 -10 -11 -11 -11 -12 -12 -12
-5 -6 -5 -6 -7 -8 -8 -9 -9 -9 -10 -10 -11 -11 -12 -11 -11 -11 -11 -10 -10 -10 -11 -10 -10 -10 -10 -9 -9 -10 -10 -10 -9 -9 -10 -11 -12 -12 -12 -12 -13 -13 -14 -14
-7 -7 -7 -7 -8 -9 -10 -10 -11 -11 -11 -11 -11 -11 -11 -11 -11 -12 -12 -11 -11 -10 -11 -12 -12 -11 -10 -11 -10 -11 -11 -11 -12 -12 -13 -13 -14 -14 -14 -14 -15 -15 -15 -16
-9 -9 -9 -9 -10 -11 -11 -11 -12 -11 -11 -11 -11 -11 -12 -12 -12 -12 -11 -11 -11 -13 -17 -23 -22 -22 -22 -19 -18 -17 -15 -15 -15 -14 -14 -14 -15 -15 -16 -17 -17 -18 -19 -19
-11 -11 -11 -11 -11 -12 -12 -12 -12 -12 -12 -12 -12 -12 -12 -13 -12 -13 -17 -20 -25 -28 -26 -24 -24 -23 -22 -20 -20 -19 -18 -18 -18 -17 -17 -17 -17 -17 -17 -17 -17 -18 -18 -19
-12 -12 -12 -12 -12 -12 -12 -12 -12 -12 -12 -12 -12 -13 -16 -19 -19 -20 -24 -29 -29 -29 -29 -26 -24 -22 -21 -21 -21 -20 -19 -18 -18 -18 -18 -18 -18 -18 -18 -18 -18 -19 -19 -19
-12 -12 -12 -12 -12 -12 -12 -12 -12 -12 -13 -13 -14 -15 -17 -17 -17 -25 -30 -30 -31 -31 -29 -27 -24 -20 -19 -21 -21 -22 -21 -20 -20 -19 -19 -19 -19 -19 -19 -20 -20 -20 -20 -20
-12 -12 -12 -12 -12 -12 -12 -13 -14 -16 -17 -18 -18 -17 -17 -19 -21 -26 -29 -27 -28 -31 -30 -30 -26 -23 -23 -23 -22 -21 -21 -21 -20 -20 -21 -21 -21 -22 -21 -22 -23 -23 -23 -24
-12 -12 -12 -13 -13 -14 -16 -17 -18 -18 -19 -19 -15 -15 -16 -16 -19 -22 -25 -25 -23 -21 -27 -26 -25 -23 -23 -23 -24 -23 -23 -23 -22 -21 -21 -21 -21 -21 -23 -24 -24 -24 -26 -27
-12 -12 -12 -12 -14 -14 -14 -14 -14 -14 -15 -16 -18 -18 -19 -19 -21 -19 -21 -21 -20 -21 -21 -22 -23 -24 -24 -25 -23 -24 -25 -24 -24 -25 -25 -24 -23 -25 -24 -25 -26 -27 -26 -26
-12 -12 -12 -13 -13 -14 -13 -13 -14 -14 -15 -16 -16 -18 -18 -18 -19 -19 -19 -19 -19 -19 -20 -22 -22 -23 -25 -27 -25 -24 -25 -25 -25 -25 -26 -26 -25 -26 -26 -26 -26 -26 -26 -26
-13 -13 -14 -15 -16 -16 -14 -14 -14 -15 -16 -16 -17 -17 -18 -18 -19 -19 -19 -19 -20 -20 -20 -20 -21 -21 -21 -22 -22 -23 -23 -24 -24 -24 -25 -25 -25 -25 -26 -26 -27 -27 -27 -26
Wind_Speed
11 14 6 9 13 13 9 11 8 4 12 9 8 15 14 19 24 27 27 29 30 28 26 25 24 21 17 14 19 36 33 29 35 34 34 35 36 39 44 48 51 50 48 50
4 9 12 7 17 14 10 6 15 5 8 10 7 12 22 16 25 22 26 25 23 21 22 23 22 22 22 20 12 13 23 42 37 37 39 39 39 40 40 44 47 52 55 56
3 11 12 6 3 7 4 5 6 8 10 20 16 12 9 22 25 24 25 28 23 19 18 20 24 25 24 24 21 16 8 11 31 43 44 43 44 44 43 45 45 48 52 54
3 5 3 7 17 12 14 16 20 12 11 4 18 22 25 27 28 26 28 24 20 17 15 18 22 23 22 22 22 20 18 15 9 9 30 45 48 49 50 49 49 49 50 52
2 2 9 9 9 4 8 4 8 11 12 16 21 27 18 21 23 23 21 18 16 13 14 16 20 23 23 23 23 23 24 24 22 24 16 16 31 51 51 52 53 55 54 53
2 4 4 3 11 15 3 5 14 17 15 13 18 10 6 28 25 22 17 17 17 17 18 21 24 24 24 24 24 25 26 26 27 30 32 30 25 29 52 54 54 53 52 53
7 4 5 6 9 11 3 2 12 20 23 22 14 11 20 21 20 16 14 16 17 19 22 25 26 27 26 26 25 23 25 26 27 31 35 34 31 29 33 51 52 50 49 50
4 4 8 8 5 2 9 16 19 22 25 24 25 23 23 18 15 14 17 19 19 21 23 24 26 28 29 30 30 29 25 24 28 28 33 35 30 26 24 36 46 47 48 48
8 6 4 16 16 23 23 21 20 21 19 18 22 22 17 14 14 17 18 18 19 21 23 25 27 27 28 28 29 31 30 29 27 26 24 26 26 22 17 22 28 36 38 35
4 9 8 24 23 23 24 26 21 18 15 13 13 9 10 10 12 14 18 19 20 20 22 25 27 27 26 25 26 27 27 25 23 23 22 17 14 10 9 10 16 19 21 28
3 8 21 22 18 23 25 22 19 15 14 13 8 7 6 8 11 12 14 15 16 17 18 19 21 22 22 22 22 22 21 20 18 18 17 15 12 12 9 6 2 9 11 12
3 8 17 16 16 17 15 10 17 15 11 12 8 9 6 9 8 9 11 11 13 14 15 16 17 18 20 19 18 16 17 18 18 19 22 26 25 25 27 26 23 22 26 29
8 9 23 19 18 14 12 12 11 11 9 10 9 7 7 10 10 11 13 14 14 14 14 15 17 18 17 16 15 15 16 16 17 19 24 29 32 35 38 35 36 39 37 33
18 12 16 16 11 10 13 13 9 10 11 11 10 9 9 11 13 15 15 16 15 16 17 18 19 20 17 16 17 19 19 19 21 22 23 25 28 30 31 33 34 34 31 27
20 17 18 15 12 13 13 10 12 12 11 12 12 13 13 16 17 16 16 16 17 18 19 19 20 21 18 17 18 20 22 21 20 20 20 21 23 25 27 26 26 25 23 23
8 16 16 17 15 11 11 11 13 14 14 16 17 18 18 19 19 19 18 16 16 20 18 18 18 17 14 14 15 16 17 17 17 17 16 15 17 19 19 20 19 20 20 18
7 10 11 13 14 14 16 15 15 16 17 19 18 16 16 18 19 18 17 16 16 17 18 18 18 14 15 13 14 15 14 13 12 14 16 16 15 16 16 16 17 17 17 13
10 9 8 10 11 11 13 12 12 13 15 15 14 14 16 16 16 15 14 13 13 13 14 16 14 12 12 11 11 11 10 11 12 13 12 13 13 12 12 12 12 13 12 10
9 10 11 12 11 13 14 16 18 18 18 18 17 18 16 15 12 11 9 8 10 10 14 10 9 8 9 9 9 8 9 10 10 11 12 11 11 11 10 10 10 10 9 8
7 8 9 12 13 15 17 17 17 17 15 13 14 13 12 12 10 9 7 9 11 11 8 7 7 9 10 8 7 8 8 9 10 10 9 10 10 10 10 10 10 10 10 9
13 15 17 17 18 17 17 15 15 17 17 14 12 12 11 9 6 6 7 9 10 9 8 7 8 10 11 9 8 7 7 8 9 9 9 8 7 7 7 6 6 5 5 3
15 17 16 16 17 17 15 14 13 13 11 9 9 8 6 6 6 6 8 9 9 8 8 8 8 9 8 8 8 9 8 8 7 6 5 5 5 4 3 3 2 2 1 2
15 15 14 14 13 13 11 9 9 7 7 6 6 6 6 6 5 5 5 8 9 8 6 6 6 6 6 6 6 7 7 7 8 7 6 4 3 3 1 2 4 4 3 6
15 14 13 12 10 9 9 9 8 8 8 6 4 4 2 6 8 8 8 7 8 10 8 6 6 7 6 6 6 7 6 4 4 4 3 3 3 4 6 6 6 6 7 8
13 11 9 8 7 8 8 7 7 6 7 7 7 6 3 4 3 8 9 7 6 7 7 7 7 9 8 6 6 6 8 8 7 6 6 6 7 8 9 9 9 8 9 9
6 7 9 8 7 6 5 6 5 1 1 3 6 7 6 7 5 6 7 8 8 8 9 8 7 8 7 8 8 8 9 9 8 7 8 9 9 11 11 10 9 10 10 11
6 4 4 2 1 3 5 5 5 3 3 5 5 5 5 4 4 4 4 5 6 8 6 8 12 11 12 11 11 12 11 12 13 12 12 12 12 13 13 12 11 12 12 12
Wind_Direction
314 309 244 248 255 262 223 226 212 191 236 276 293 310 324 77 71 66 56 48 48 45 33 20 19 23 29 27 16 234 235 248 252 254 253 251 249 246 240 240 238 239 241 241
275 311 336 230 248 239 179 290 212 235 262 202 133 298 289 80 77 71 70 58 43 26 12 13 6 357 352 358 6 31 255 242 246 253 255 255 255 251 249 249 245 241 241 241
287 349 319 306 255 152 144 304 265 235 207 179 174 228 142 81 75 74 70 66 52 38 18 359 357 349 344 342 339 341 328 11 259 245 247 255 257 253 251 251 250 247 245 244
283 351 254 304 309 184 163 182 246 212 110 156 106 95 79 79 79 73 71 65 52 35 12 360 354 352 347 340 335 331 323 309 311 256 249 250 248 247 253 253 249 248 249 248
224 202 296 310 302 360 173 181 323 95 104 116 114 79 63 80 78 81 69 56 45 24 3 355 359 360 355 347 343 332 324 318 308 299 281 264 257 253 251 250 246 245 248 248
184 215 228 328 314 332 1 53 7 72 71 67 70 69 29 73 77 69 55 36 27 18 0 358 356 355 358 355 346 336 333 321 314 302 290 284 284 254 256 251 250 245 239 241
222 257 281 260 290 329 245 147 41 59 66 66 69 83 73 76 70 62 39 17 9 9 2 360 355 356 357 357 355 345 333 326 319 311 304 292 287 279 253 249 242 240 238 239
196 208 256 289 63 301 144 90 77 62 60 70 64 65 73 62 43 22 8 356 352 350 352 351 351 352 356 354 351 349 346 334 324 318 313 303 293 288 271 235 238 236 233 232
176 200 223 39 119 127 115 99 87 78 71 70 59 64 55 46 25 13 7 3 359 358 355 353 353 351 350 351 348 348 348 346 338 326 316 310 303 294 283 250 231 224 221 219
337 23 52 66 32 74 86 88 91 89 86 82 85 59 39 23 17 16 14 11 8 4 3 1 358 356 355 354 355 353 354 354 352 345 333 321 316 307 280 243 225 208 197 198
159 83 72 62 59 66 49 72 88 84 90 89 102 86 55 50 43 31 22 15 13 15 15 11 4 0 360 3 4 5 6 9 15 24 29 27 36 49 50 47 204 180 154 138
68 2 111 87 79 72 81 69 101 102 102 96 102 99 93 67 45 45 42 41 35 35 32 31 26 23 22 19 19 29 38 44 51 57 65 72 76 79 80 85 90 96 102 102
21 99 103 91 80 79 80 106 99 104 97 95 96 97 87 79 69 67 62 64 60 58 58 55 51 49 42 40 44 53 60 68 73 79 85 88 88 86 95 95 95 95 96 100
61 126 64 65 85 87 102 99 97 91 93 100 99 99 97 91 90 84 77 81 84 82 77 73 68 64 61 61 67 71 73 77 78 80 82 84 89 91 91 93 92 93 99 97
43 83 103 113 110 100 104 104 91 82 73 76 88 93 94 95 101 101 103 99 95 90 84 79 76 71 66 66 71 74 76 73 78 82 86 91 93 94 93 89 88 90 93 93
58 80 82 96 97 88 95 89 92 95 87 88 86 87 94 100 103 107 108 105 96 81 75 72 71 67 67 68 69 74 77 82 83 82 84 82 87 92 92 93 91 88 84 80
51 42 53 86 87 82 88 96 100 108 112 111 113 116 113 110 106 100 93 88 86 85 79 71 67 66 63 60 68 68 69 74 77 82 81 80 80 82 85 85 85 83 80 76
71 75 79 95 88 79 83 91 100 101 105 114 119 118 115 109 101 97 92 87 84 79 71 67 59 52 56 60 58 63 75 82 80 78 80 85 84 81 82 83 81 76 73 65
83 90 92 90 87 95 97 99 100 105 111 115 118 108 99 92 89 86 85 83 72 62 55 55 59 56 52 64 65 73 78 75 83 91 91 92 88 85 79 73 72 73 74 73
96 99 108 108 109 104 104 102 104 104 103 104 97 95 92 84 75 71 61 61 61 61 61 57 61 59 58 60 68 78 82 86 90 90 91 92 92 90 87 83 82 81 78 72
102 103 103 103 103 104 103 106 108 105 102 99 96 92 85 78 56 38 55 55 59 58 65 75 69 62 64 73 77 81 86 91 90 93 97 97 100 98 93 91 91 91 93 76
109 106 108 111 108 106 105 105 102 102 100 96 85 65 50 50 43 34 49 56 54 60 74 75 68 68 64 67 76 87 89 88 94 99 90 85 94 101 108 108 93 74 324 295
109 109 106 101 98 97 100 92 87 88 100 100 91 72 58 49 35 33 55 63 61 67 69 73 66 65 70 76 72 63 64 76 81 73 71 71 68 95 144 286 333 351 329 302
105 99 93 84 78 73 76 74 69 66 62 68 82 92 6 1 13 31 36 46 52 52 47 49 49 60 60 49 46 76 79 49 52 52 53 30 357 332 338 338 329 316 310 313
102 96 89 80 74 71 64 68 62 48 16 15 10 9 25 40 42 42 42 51 25 13 39 41 16 17 19 31 46 9 11 21 21 8 342 350 340 328 333 337 331 326 332 338
134 138 141 143 135 141 130 137 151 119 326 358 8 7 21 6 7 20 14 16 13 3 0 5 16 12 1 345 358 354 342 344 347 343 327 325 324 321 326 332 332 330 330 332
104 93 76 68 54 205 209 192 209 215 250 284 319 332 345 6 1 352 341 339 332 345 341 344 349 359 2 360 360 351 346 341 341 340 333 328 326 323 325 332 332 328 325 322
Height
1423 1418 1414 1418 1413 1405 1411 1416 1422 1415 1418 1413 1413 1409 1406 1401 1405 1404 1403 1403 1406 1410 1412 1413 1414 1417 1420 1420 1419 1417 1418 1414 1411 1414 1416 1420 1423 1425 1428 1430 1431 1434 1437 1438
1422 1411 1407 1406 1405 1397 1408 1408 1406 1412 1418 1414 1416 1413 1412 1404 1406 1409 1409 1411 1410 1410 1411 1414 1415 1415 1415 1415 1416 1416 1417 1413 1411 1409 1409 1411 1412 1415 1419 1420 1422 1426 1426 1428
1424 1418 1415 1411 1395 1399 1404 1408 1408 1418 1405 1405 1412 1414 1413 1408 1409 1411 1413 1413 1415 1417 1417 1417 1415 1414 1411 1409 1410 1410 1410 1410 1411 1410 1407 1404 1404 1405 1406 1408 1412 1413 1415 1418
1434 1422 1419 1399 1390 1388 1391 1405 1402 1393 1398 1395 1406 1412 1411 1411 1410 1413 1414 1418 1420 1420 1420 1419 1417 1414 1410 1406 1404 1402 1402 1402 1402 1401 1403 1403 1397 1396 1396 1397 1398 1400 1402 1405
1436 1425 1415 1401 1390 1386 1388 1392 1384 1384 1389 1398 1406 1404 1411 1412 1412 1415 1417 1420 1420 1420 1420 1419 1417 1414 1410 1406 1403 1399 1395 1393 1393 1392 1392 1393 1394 1390 1387 1388 1388 1389 1391 1394
1435 1426 1422 1406 1391 1383 1382 1403 1396 1388 1394 1399 1398 1409 1415 1413 1414 1417 1418 1419 1417 1417 1416 1415 1414 1412 1408 1405 1401 1397 1393 1389 1386 1383 1381 1381 1380 1379 1378 1377 1376 1379 1381 1382
1430 1429 1415 1397 1396 1391 1398 1415 1403 1399 1401 1404 1408 1417 1419 1415 1416 1417 1418 1417 1417 1415 1413 1412 1410 1407 1404 1401 1398 1395 1390 1385 1381 1376 1373 1370 1368 1366 1366 1366 1366 1367 1369 1371
1429 1429 1421 1394 1397 1400 1407 1405 1405 1405 1406 1410 1414 1417 1417 1417 1415 1416 1417 1415 1414 1413 1412 1411 1408 1404 1400 1396 1393 1388 1385 1381 1375 1371 1367 1362 1359 1357 1356 1356 1357 1357 1359 1361
1411 1411 1399 1395 1392 1399 1402 1403 1407 1407 1410 1411 1413 1417 1418 1419 1419 1418 1419 1418 1417 1415 1413 1410 1406 1402 1398 1394 1389 1385 1380 1375 1372 1368 1362 1357 1354 1353 1351 1350 1350 1350 1351 1353
1404 1404 1401 1405 1411 1407 1407 1407 1410 1411 1414 1414 1417 1417 1421 1422 1422 1422 1421 1420 1419 1417 1413 1410 1406 1402 1399 1394 1389 1385 1381 1377 1373 1367 1362 1355 1352 1350 1349 1347 1346 1348 1347 1344
1402 1409 1408 1415 1420 1415 1417 1416 1414 1419 1420 1421 1420 1423 1423 1425 1423 1423 1423 1422 1420 1417 1414 1412 1409 1405 1400 1396 1392 1388 1384 1380 1377 1372 1366 1359 1354 1351 1351 1350 1349 1348 1350 1355
1411 1413 1409 1420 1422 1421 1423 1430 1423 1423 1425 1423 1424 1424 1426 1424 1424 1424 1423 1422 1420 1418 1417 1414 1411 1408 1405 1400 1396 1392 1389 1386 1383 1379 1376 1369 1365 1359 1360 1359 1356 1357 1358 1366
1418 1416 1416 1419 1423 1426 1428 1425 1424 1424 1427 1425 1426 1425 1425 1425 1425 1425 1424 1423 1422 1421 1420 1418 1416 1412 1410 1406 1403 1399 1395 1392 1389 1386 1383 1377 1376 1374 1370 1370 1368 1365 1367 1372
1425 1423 1422 1423 1429 1431 1430 1427 1427 1427 1427 1427 1426 1425 1425 1426 1426 1426 1427 1427 1427 1426 1423 1421 1419 1417 1415 1412 1408 1404 1401 1399 1395 1395 1394 1391 1386 1384 1384 1380 1378 1377 1374 1378
1423 1424 1426 1429 1431 1432 1431 1428 1428 1429 1428 1428 1427 1426 1426 1426 1427 1429 1431 1431 1431 1429 1427 1425 1422 1419 1418 1415 1412 1409 1405 1406 1402 1400 1401 1399 1396 1393 1391 1391 1390 1389 1388 1382
1428 1428 1430 1430 1431 1431 1430 1430 1430 1431 1430 1429 1428 1429 1429 1430 1431 1432 1433 1433 1432 1429 1429 1426 1424 1423 1421 1419 1417 1413 1410 1410 1409 1407 1407 1408 1405 1401 1398 1397 1398 1395 1392 1392
1426 1427 1429 1430 1430 1430 1430 1430 1429 1429 1429 1430 1432 1433 1433 1434 1435 1435 1435 1434 1433 1432 1431 1429 1427 1426 1424 1422 1419 1416 1415 1414 1414 1412 1411 1410 1411 1409 1406 1404 1402 1399 1397 1399
1429 1429 1429 1428 1428 1428 1428 1428 1428 1429 1430 1432 1434 1435 1436 1437 1437 1437 1437 1437 1435 1434 1432 1430 1429 1428 1425 1423 1421 1420 1419 1417 1417 1415 1414 1413 1413 1413 1411 1410 1408 1405 1405 1406
1431 1430 1430 1429 1430 1430 1430 1431 1431 1432 1434 1436 1437 1438 1438 1439 1439 1439 1439 1438 1436 1434 1433 1432 1431 1429 1427 1425 1423 1422 1422 1421 1419 1418 1417 1417 1416 1416 1415 1413 1412 1411 1411 1410
1433 1432 1432 1432 1432 1433 1433 1435 1436 1437 1439 1440 1440 1441 1441 1441 1441 1440 1440 1437 1436 1436 1435 1434 1432 1430 1428 1427 1426 1425 1424 1423 1422 1421 1421 1420 1419 1419 1418 1418 1416 1416 1415 1415
1436 1435 1435 1436 1436 1438 1438 1439 1440 1440 1442 1443 1443 1444 1444 1443 1443 1442 1440 1438 1438 1437 1436 1435 1433 1431 1430 1430 1429 1428 1427 1425 1424 1423 1422 1422 1421 1421 1421 1420 1419 1418 1417 1416
1440 1440 1441 1442 1442 1442 1443 1443 1443 1443 1445 1446 1446 1445 1445 1444 1444 1443 1441 1440 1439 1439 1438 1436 1435 1434 1433 1432 1431 1429 1429 1428 1427 1426 1425 1424 1423 1423 1422 1421 1420 1419 1418 1417
1444 1445 1446 1446 1446 1446 1447 1447 1446 1447 1448 1447 1446 1446 1446 1445 1444 1443 1442 1442 1441 1440 1439 1438 1437 1436 1435 1434 1432 1431 1430 1429 1428 1427 1426 1425 1425 1424 1423 1421 1420 1419 1417 1416
1449 1449 1450 1450 1450 1450 1449 1450 1450 1449 1449 1448 1448 1448 1446 1445 1444 1444 1443 1441 1441 1441 1440 1439 1437 1436 1435 1434 1433 1432 1431 1430 1429 1428 1427 1426 1425 1423 1422 1421 1419 1417 1415 1414
1452 1452 1453 1453 1453 1453 1453 1452 1451 1451 1450 1450 1449 1448 1447 1446 1446 1445 1444 1443 1442 1441 1441 1440 1438 1437 1435 1434 1433 1431 1430 1429 1428 1427 1425 1424 1423 1421 1420 1418 1417 1415 1413 1412
1454 1455 1455 1454 1454 1454 1454 1453 1453 1452 1451 1450 1450 1449 1448 1447 1446 1445 1445 1444 1443 1442 1440 1439 1438 1437 1435 1433 1432 1430 1428 1427 1426 1425 1423 1422 1421 1419 1418 1416 1414 1413 1411 1409
1455 1455 1455 1454 1454 1454 1453 1453 1452 1452 1452 1450 1449 1449 1448 1448 1447 1446 1446 1445 1443 1442 1440 1439 1437 1435 1434 1432 1430 1429 1427 1425 1424 1423 1421 1419 1418 1416 1415 1413 1411 1410 1408 1406